This is the latest recevied weather packets stored in our database for station/object KM4CNW. If no packets are shown the sender has not sent any weather packets the latest 10 day(s).
| Time | Temp. | Humidity | Pressure | Rain* | Wind** | Luminosity | Snow |
|---|---|---|---|---|---|---|---|
| 1777510489 | 18.89° C | 90% | 1002.3 hPa | 0 mm | - | 0 W/m² | - |
| 1777510184 | 19.44° C | 89% | 1002.1 hPa | 0 mm | - | 0 W/m² | - |
| 1777509881 | 19.44° C | 88% | 1002.3 hPa | 0 mm | - | 0 W/m² | - |
| 1777509576 | 20° C | 87% | 1002.5 hPa | 0 mm | - | 0 W/m² | - |
| 1777509273 | 20° C | 87% | 1002.2 hPa | 0 mm | - | 0 W/m² | - |
| 1777508971 | 20° C | 86% | 1001.9 hPa | 0 mm | - | 0 W/m² | - |
| 1777508668 | 20.56° C | 85% | 1002 hPa | 0 mm | - | 0 W/m² | - |
| 1777508365 | 20.56° C | 84% | 1002 hPa | 0 mm | - | 0 W/m² | - |
| 1777508062 | 21.11° C | 82% | 1002 hPa | 0 mm | - | 1 W/m² | - |
| 1777507759 | 21.11° C | 82% | 1001.8 hPa | 0 mm | - | 2 W/m² | - |
| 1777507455 | 21.67° C | 81% | 1001.7 hPa | 0 mm | - | 3 W/m² | - |
| 1777507153 | 21.67° C | 80% | 1001.5 hPa | 0 mm | - | 6 W/m² | - |
| 1777506851 | 22.22° C | 78% | 1001.8 hPa | 0 mm | - | 10 W/m² | - |
| 1777506547 | 22.78° C | 75% | 1001.8 hPa | 0 mm | - | 13 W/m² | - |
| 1777506242 | 22.78° C | 75% | 1001.9 hPa | 0 mm | - | 15 W/m² | - |
| 1777505940 | 23.33° C | 73% | 1001.8 hPa | 0 mm | - | 17 W/m² | - |
| 1777505635 | 23.33° C | 72% | 1001.8 hPa | 0 mm | - | 19 W/m² | - |
| 1777505332 | 23.89° C | 72% | 1001.7 hPa | 0 mm | - | 19 W/m² | - |
| 1777505029 | 23.89° C | 67% | 1001.7 hPa | 0 mm | - | 26 W/m² | - |
| 1777504726 | 24.44° C | 66% | 1001.7 hPa | 0 mm | - | 34 W/m² | - |
| 1777504423 | 24.44° C | 66% | 1001.5 hPa | 0 mm | - | 44 W/m² | - |
| 1777504118 | 24.44° C | 64% | 1001.6 hPa | 0 mm | - | 60 W/m² | - |
| 1777503814 | 24.44° C | 65% | 1001.7 hPa | 0 mm | - | 63 W/m² | - |
| 1777503511 | 24.44° C | 65% | 1001.7 hPa | 0 mm | - | 60 W/m² | - |
| 1777503207 | 24.44° C | 65% | 1001.6 hPa | 0 mm | - | 95 W/m² | - |
* Rain latest hour (hover to see other rain measurements)
** Current wind speed in m/s (hover to see current wind gust speed)